RH
26 14 8 6 13 24 31 38 42 42 43 45 53 41 32 37 33 33 37 42 44 47 47 48 54 52 48 48 54 62 66 73 93 92 84 86 89 85 81 81 78 80 77 59
35 24 10 7 12 20 30 36 43 45 46 47 54 47 28 31 37 35 38 37 40 42 43 47 45 48 47 46 52 57 60 67 84 81 82 85 87 82 82 72 67 68 63 49
42 34 19 10 15 18 29 35 42 45 47 46 48 48 30 27 32 35 36 38 38 36 35 38 44 41 47 51 50 52 52 54 58 64 57 70 79 70 75 70 64 57 53 49
43 42 33 10 19 22 27 35 38 41 45 49 46 47 45 25 24 32 35 36 39 41 40 36 36 37 37 38 44 51 51 51 48 52 50 50 53 58 62 64 61 50 44 47
33 49 42 22 20 26 27 35 36 38 39 41 46 47 48 29 25 25 30 36 34 36 39 38 39 38 38 37 39 39 44 49 47 41 43 44 47 43 46 42 42 42 41 42
24 44 52 33 22 28 28 32 38 39 38 38 44 45 46 44 27 27 28 33 35 34 32 33 36 43 44 40 40 38 37 40 43 35 38 37 33 35 35 35 37 37 38 33
18 27 53 44 20 31 30 31 40 40 38 38 43 42 46 48 36 27 32 34 36 35 37 35 36 39 44 45 47 46 40 41 45 47 36 35 31 28 30 32 32 31 30 30
22 22 49 60 23 34 38 34 41 40 38 35 40 43 47 49 47 36 32 34 36 38 39 42 40 43 40 43 40 45 43 43 44 44 37 34 32 28 29 27 26 27 26 30
27 24 36 63 30 42 45 43 44 42 40 34 39 44 49 50 52 47 43 38 39 41 44 45 43 41 41 37 38 44 44 44 41 41 35 32 33 29 29 31 32 30 29 32
29 28 34 70 42 47 54 50 47 46 43 37 43 48 51 51 55 61 60 52 50 49 52 50 50 48 47 42 42 45 46 46 40 46 37 34 34 34 32 30 34 33 33 34
31 30 53 87 49 59 60 59 55 50 46 44 48 52 49 55 57 59 63 65 61 59 56 55 54 57 52 52 47 48 46 47 46 47 39 33 33 32 29 30 30 31 32 33
31 29 64 93 65 67 80 67 65 59 55 57 61 57 53 57 59 58 63 58 58 58 60 62 63 61 63 58 52 53 52 49 47 43 40 38 37 35 34 35 35 35 35 34
28 43 98 86 77 86 83 74 72 66 70 71 73 65 59 59 57 57 51 52 57 62 61 62 64 63 62 60 60 58 56 57 57 50 45 44 43 42 41 40 40 40 38 38
67 95 87 84 78 97 88 85 76 75 81 82 77 73 66 62 54 50 48 48 46 47 49 53 60 62 60 63 63 65 62 60 58 57 52 52 51 50 49 48 46 46 47 49
74 87 80 79 83 99 85 93 85 84 90 85 78 72 63 61 59 55 49 46 44 44 46 49 51 54 60 65 65 69 65 63 60 60 59 58 57 56 55 55 55 55 55 54
75 98 88 82 98 98 81 89 87 87 95 87 77 73 67 62 59 54 51 46 43 44 49 54 53 55 58 58 57 57 63 63 60 60 61 60 58 58 58 58 58 56 56 56
79 83 97 88 81 87 95 69 67 90 89 81 77 72 66 63 60 55 50 48 48 55 60 59 58 60 63 63 60 56 62 67 66 65 65 62 60 60 59 59 56 56 55 55
96 97 94 86 82 96 93 70 68 83 86 79 76 70 62 61 58 55 53 54 59 66 68 66 67 70 69 68 62 61 63 66 68 68 65 64 64 61 56 54 54 54 55 57
98 96 95 89 92 85 73 83 83 72 72 77 72 65 61 55 53 54 56 60 66 72 73 73 74 75 73 68 68 67 68 71 71 72 70 66 63 60 58 57 57 58 60 62
97 97 96 93 80 80 73 93 99 92 79 74 69 64 61 57 57 59 63 68 76 83 79 81 81 77 74 75 75 76 75 74 74 75 72 68 64 62 61 60 58 57 58 61
99 98 98 95 91 92 94 93 89 84 79 73 69 63 60 59 61 67 69 80 87 86 82 85 81 79 78 78 76 77 77 76 75 73 72 68 65 62 61 61 61 61 61 62
98 98 98 98 98 98 98 93 85 80 78 76 68 63 62 63 64 73 84 90 90 90 86 86 81 78 78 76 75 74 73 74 75 74 72 69 65 65 63 60 60 60 60 59
98 98 98 97 97 97 96 93 89 84 80 76 73 75 77 83 86 90 90 92 95 90 91 86 80 79 78 78 78 77 76 74 74 74 71 68 65 63 61 61 62 62 62 61
97 97 97 98 97 96 93 88 87 84 83 86 88 89 89 94 95 98 98 97 93 92 89 85 86 84 80 80 80 80 79 80 80 78 72 68 67 62 61 57 56 56 57 60
93 92 97 97 96 94 94 91 87 89 93 97 98 99 98 98 98 98 97 96 94 89 88 90 86 82 81 80 80 82 82 81 77 71 66 64 61 60 60 61 61 62 62 63
79 90 97 98 96 95 92 89 92 96 98 98 98 98 98 98 98 97 97 96 92 91 90 88 88 87 86 85 84 83 80 74 68 64 62 60 61 61 60 58 57 58 57 55
57 88 94 98 95 94 90 86 80 86 93 97 98 97 97 97 97 97 97 96 93 87 87 87 85 84 82 79 76 73 70 69 68 68 66 59 57 57 57 56 54 52 51 48